マクノート彗星

378P/McNaught (2004)

English version
Home page
Updated on May 27, 2019

---------------------------------------------------------------------

・ プロフィール

符号 378P/2005 Y2
発見日 2005年12月30日
発見光度 17.8等
発見者 R. H. McNaught (Siding Spring)

・ 軌道要素

Epoch 2004 Dec. 21.0 TT = JDT 2453360.5
T 2004 Dec. 27.93152 TT                                 MPCW
q   3.3547934            (2000.0)            P               Q
n   0.06254453     Peri.  194.57344     +0.31488110     +0.89085340
a   6.2855479      Node    94.62264     -0.83461959     +0.42417454
e   0.4662687      Incl.   19.17950     -0.45195137     -0.16265353
P  15.76
From 146 observations 2003 May 30-2019 Mar. 18, mean residual 0".6.

・ 星図

・ 光度変化

        m1 = 10.0 + 5 logΔ + 7.5 log r(t - 1000)

---------------------------------------------------------------------

軌道要素はM.P.E.C. 2019-F27に掲載されたものです。
星図は StellaNavigator Ver.2.0 for Windows (アストロアーツ 編著 / アスキー出版局刊) で作成したものです。
光度グラフはComet for Windowsで作成したものです。

---------------------------------------------------------------------

Copyright(C) Seiichi Yoshida (comet@aerith.net). All rights reserved.